Location: Bouchavesnes-Bergen
(49.9859°N, 2.9203°E)
Time: 04:53:25
(UTC+00:00)

FENGYUN 3A - Pass Details

Date: 09 March 2021
Orbit: 824 x 836 km, 98.4° (Epoch: 11 April)

Event Time Altitude Azimuth Distance (km) Brightness Sun altitude
Rises 05:06:36 0° 9° (N) 3,400 7.1 -11.8°
Reaches altitude 10° 05:09:05 10° 3° (N) 2,461 6.2 -11.4°
Maximum altitude 05:14:09 41° 295° (WNW) 1,203 4.1 -10.6°
Drops below altitude 10° 05:19:11 10° 227° (SW) 2,443 5.6 -9.7°
Sets 05:21:38 0° 220° (SW) 3,371 6.4 -9.4°
Enters shadow 05:21:41 - 220° (SW) 3,388 6.4 -9.3°
